Weather Service Report


899 
ASUS46 KLOX 312112
RWRCA 

SOUTHERN CALIFORNIA WEATHER ROUNDUP
NATIONAL WEATHER SERVICE OXNARD CALIFORNIA
100 PM PST SAT JAN 31 2015

NOTE: "FAIR" INDICATES FEW OR NO CLOUDS BELOW 12,000 FEET WITH NO 
SIGNIFICANT WEATHER AND/OR OBSTRUCTIONS TO VISIBILITY.

  -  STATIONS PRECEEDED BY AN ASTERISK (*) ARE NOT NWS OR FAA 
     STATIONS AND ARE NOT SUBJECT TO NWS AND FAA QUALITY CONTROL.

CAZ041-042-087-312200-
LA AND ORANGE COUNTY COASTAL AREAS

  
CITY           SKY/WX    TMP DP  RH WIND       PRES   REMARKS
L.A. DOWNTOWN  MOSUNNY   70  51  51 VRB3      29.87F                  
L.A. AIRPORT   MOSUNNY   64  55  72 W12       29.89F                  
LONG BEACH     SUNNY     67  54  63 S6        29.88F                  

CITY           SKY/WX    TMP DP  RH WIND       PRES   REMARKS
AVALON           N/A     63 N/A N/A N5          N/A                   
FULLERTON      SUNNY     69  49  48 VRB3      29.87F                  
*GETTY CENTER    N/A     64  54  68 S9          N/A                   
HAWTHORNE      MOSUNNY   69  54  58 W8        29.88F                  
*LEO CARRILLO    N/A     67  58  72 SW7         N/A                   
*LOS ALAMITOS  MOSUNNY   70  57  63 SW7       29.88F                  
*REDONDO BEACH   N/A     67  56  67 W3        29.89F                  
SANTA ANA      MOSUNNY   69  53  56 S10G18    29.88F                  
STA MONICA APT SUNNY     65  52  62 W8        29.89F                  
*UCLA            N/A     64  52  63 SW12      29.85F                  

$$

CAZ547-548-048-312200-
LA COUNTY VALLEYS AND INLAND EMPIRE

  
CITY           SKY/WX    TMP DP  RH WIND       PRES   REMARKS
BURBANK        SUNNY     71  38  29 N13G26    29.87F                  
VAN NUYS       MOSUNNY   71  40  32 NE10G22   29.88F                  

CITY           SKY/WX    TMP DP  RH WIND       PRES   REMARKS
CORONA AIRPORT PTCLDY    70  42  36 NE17G28   29.89F                  
CHINO          PTSUNNY   66  43  43 N12G21    29.89F                  
*CLAREMONT       N/A     66  50  57 SW5         N/A                   
MARCH AFB      MOSUNNY   63  51  64 E8        29.88F                  
*NORTHRIDGE      N/A     70  36  28 NE7         N/A                   
ONTARIO        MOSUNNY   63  50  62 N9        29.89F                  
*PASADENA        N/A     68  54  60 E5          N/A                   
POMONA         MOSUNNY   64  48  55 SW5       29.91F                  
RIVERSIDE      PTSUNNY   68  42  38 N13G26    29.87F                  
SAN BERNARDINO PTSUNNY   66  37  34 N21G29    29.89F                  
*SAN GABRIEL     N/A     68  48  49 CALM      29.85F                  
*SAN RAFAEL HI   N/A     70  53  53 NE3G26      N/A                   
*SAUGUS          N/A     64  40  42 NE17G33     N/A                   
*WHITEMAN AP   MOSUNNY   68  37  32 W9G23     29.92F                  
*WOODLAND HILL   N/A     70  37  30 N8          N/A                   

$$

CAZ054-055-312200-
LA AND SAN BERNARDINO COUNTY MOUNTAINS

  
CITY           SKY/WX    TMP DP  RH WIND       PRES   REMARKS
*ACTON           N/A     57  39  51 N14G28      N/A                   
*BIG BEAR AIRP DRIZZLE   34  32  93 NE9       29.98S WCI  26          
*BIG PINES       N/A     34  34  99 CALM        N/A                   
*CHILAO          N/A     47  34  60 NE14G29     N/A                   
MT WILSON NWS    N/A     52  36  54 MISG        N/A                   
SANDBERG       SUNNY     55  37  50 E16G22    29.98F                  
*WARM SPRINGS    N/A     56  36  47 NE22G36     N/A                   

$$

CAZ028-029-059-060-099-312200-
ANTELOPE VALLEY AND SURROUNDING AREAS

  
CITY           SKY/WX    TMP DP  RH WIND       PRES   REMARKS
LANCASTER      MOSUNNY   62  38  40 NE16G25   29.95F                  
PALMDALE       PTSUNNY   61  41  47 NE20      29.95F                  
*POPPY PARK      N/A     62  45  53 E14         N/A                   

CITY           SKY/WX    TMP DP  RH WIND       PRES   REMARKS
29 PALMS       PTSUNNY   57  44  62 N13       29.99F                  
BARSTOW/DAGGET CLOUDY    61  40  45 CALM      29.94F                  
BISHOP         SUNNY     60  24  25 N17G25    30.08F                  
CHINA LAKE     MOSUNNY   65  35  33 N25G32    29.94F                  
EDWARDS AFB    PTSUNNY   62  38  42 NE15G26   29.93F                  
MOJAVE         FAIR      61  36  39 NE16G22   29.95F                  
NEEDLES        MOSUNNY   67  45  45 NE18      29.87F                  
VICTORVILLE    PTSUNNY   55  43  62 N5        29.96F                  

$$

CAZ039-040-312200-
VENTURA AND SANTA BARBARA COUNTY COAST

  
CITY           SKY/WX    TMP DP  RH WIND       PRES   REMARKS
CAMARILLO      SUNNY     69  52  54 W9        29.88F                  
NWS OXNARD       N/A     68  53  58 CALM      29.88F                  
OXNARD AIRPORT SUNNY     65  54  67 W9        29.89F                  
*POINT MUGU    MOSUNNY   68  55  63 SW8       29.91F                  
SBA APT/GOLETA SUNNY     65  54  67 SW6       29.91F                  
*SANTA BARBARA   N/A     69  53  55 CALM      29.98F                  
*VENTURA         N/A     71  53  52 SW3       29.93S                  

$$

CAZ044-045-312200-
VENTURA COUNTY VALLEYS

  
CITY           SKY/WX    TMP DP  RH WIND       PRES   REMARKS
*SIMI VALLEY     N/A     69  42  37 NE13      29.86F                  
*OJAI            N/A     69  50  50 NW3       29.86S                  
*FILLMORE        N/A     75  47  36 CALM      29.77F                  

$$

CAZ053-312200-
VENTURA COUNTY MOUNTAINS

  
CITY           SKY/WX    TMP DP  RH WIND       PRES   REMARKS
*LOCKWOOD VLY    N/A     52  34  50 MISG        N/A                   
*ROSE VALLEY     N/A     64  39  39 MISG        N/A                   

$$

CAZ034-035-036-312200-
CENTRAL COAST AND SANTA YNEZ VALLEY

  
CITY           SKY/WX    TMP DP  RH WIND       PRES   REMARKS
SAN LUIS OBISP SUNNY     68  46  45 SE3       29.93F                  
SANTA MARIA    SUNNY     71  49  45 N7        29.93F                  

CITY           SKY/WX    TMP DP  RH WIND       PRES   REMARKS
*CAL POLY SLO    N/A     66  50  55 NE12        N/A                   
*LOMPOC        SUNNY     70  50  49 W13       29.94S                  
*PISMO BEACH     N/A     70  48  45 NW5       29.93F                  
*SANTA YNEZ    FAIR      66  50  55 W3        29.92F                  

$$

CAZ037-038-051-312200-
SAN LUIS OBISPO COUNTY INTERIOR AND CUYAMA VALLEY

  
CITY           SKY/WX    TMP DP  RH WIND       PRES   REMARKS
*CUYAMA          N/A     58  46  66 NE9       29.96R                  
PASO ROBLES    SUNNY     62  48  60 SE8       29.97F                  

$$

CAZ032-033-061-312200-
SOUTHERN DESERTS

  
CITY           SKY/WX    TMP DP  RH WIND       PRES   REMARKS
BLYTHE         CLOUDY    65  51  60 N14       29.86F                  
IMPERIAL       PTSUNNY   69  45  41 NW14G21   29.85F                  
PALM SPRINGS   PTSUNNY   71  40  32 N15G23    29.91S                  
THERMAL        CLOUDY    71  43  36 NW12G18   29.86F                  

$$

ELSEWHERE ACROSS THE WESTERN UNITED STATES AND MEXICO

  
CITY           SKY/WX    TMP DP  RH WIND       PRES   REMARKS
DENVER, CO     LGT SNOW  34  29  82 CALM      29.81F                  
GRAND CANYON,  CLOUDY    45  38  76 N8        29.92F                  
HONOLULU, HI   MOSUNNY   79  61  53 S8        30.03S                  
KAHULUI, MAUI  MOSUNNY   79  70  73 N7        30.03F                  
LAKE TAHOE, CA SUNNY     49   9  19 VRB6      30.15F                  
LAS VEGAS, NV  PTSUNNY   63  40  42 N14       29.89F                  
MAMMOTH LAKES, FAIR      48  16  27 N3        30.15F                  
MEXICO CITY, M SUNNY     75  19  12 S12       30.13F                  
PHOENIX, AZ    CLOUDY    59  54  83 SE3       29.83F                  
PORTLAND, OR   PTSUNNY   40  37  89 W10       30.21F WCI  33          
RENO, NV       MOSUNNY   51  19  28 NE5       30.18F                  
SALT LAKE CITY MOSUNNY   46  30  53 NW16      30.05R                  
SAN DIEGO, CA  PTSUNNY   66  51  58 W7        29.90F                  
SAN FRANCISCO, MOSUNNY   72  31  22 N5        29.97F                  
SAN JOSE, CA   MOSUNNY   69  28  21 NW10      29.95F                  
SEATTLE, WA    CLOUDY    41  39  93 NW5       30.21F FOG              
TIJUANA, MEX   MOSUNNY   64  48  55 NW5       29.90F                  

$$
  
STATION/POSITION TIME  TEMP    WIND        PRES    VSBY  WAVE
                       AIR SEA DIR/SP/G                  HT/PER
                 (UTC) (F)     (DEG/KT/KT) (MB)    (MI)  (FT/S)
POINT ARGUELLO B NOT AVBL
WEST SANTA BARBA 2100   58 60  340/ 10/ 12 1013.0F         7/14
POINT CONCEPTION NOT AVBL
EAST SANTA BARBA NOT AVBL
SANTA MONICA BAY 2100   62 63  260/  4/  6 1013.3F         4/15

Return to Home page


Western Regional Climate Center, wrcc@dri.edu